If you wish to contribute or participate in the discussions about articles you are invited to join SKYbrary as a registered user

 Actions

Béziers-Vias Airport

From SKYbrary Wiki

LFMU
Airport
ICAO: LFMU – IATA: BZR
Summary
Name Béziers-Vias Airport
Region Europe
Territory France FR.gif
Location , Languedoc-Roussillon
Serving Beziers
Elevation 17.069 m
56 ft
56 ft17.069 m
Type medium airport
Coordinates 43° 19' 24.68" N, 3° 21' 14.05" E
Runways
Designator Length Width Surface ROPS
10/28 1820 m5,971.129 ft
30 m98.425 ft
ASP /


METAR
Observation LFMU 110900Z AUTO 36003KT 9999 // ///TCU 05/M00 Q1017
Station Beziers / Vias
Date/Time 11 December 2019 09:00:00
Wind direction 360°
Wind speed 03 kts
Lowest cloud amount n/a
Temperature 5°C
Dew point
Humidity 70%
QNH 1017 hPa
Weather condition n/a